Zurück zum Katalog

STARLINK-11163

AktivKommunikationVLEO
NORAD 60047·PAYLOAD·🇺🇸 United States

Gestartet Jun 8, 2024 von Vandenberg Space Force Base

Loading…

Nächste Überflüge (nächste 24 Stunden)

TLE

AktuellSource: CelesTrak SupGP

Epoche: Sep 14, 2026, 22:13 UTC

1 60047C 24112K   26257.92618056  .00090912  00000+0  75041-3 0  2573
2 60047  53.1571  53.2206 0001069  81.5743 335.7025 15.69614536    15

Verfolge STARLINK-11163 in Echtzeit mit AllMySat

Download on the App Store